• In Russia
  • List of Countries
  • For 7 days
  • Water Temperature
  • Weather Map
  • Weather Widgets
  • user-avatar
    Login

    Hourly Weather Yulara

    Today, 15 November, Friday

    Time Temperature Precipitation Wind Pressure Humidity
    00:00 +22°C° 0 mm 4 mps 718 mmHg 14%
    01:00 +21°C° 0 mm 4 mps 717 mmHg 14%
    02:00 +20°C° 0 mm 4 mps 717 mmHg 14%
    03:00 +19°C° 0 mm 4 mps 716 mmHg 14%
    04:00 +18°C° 0 mm 4 mps 717 mmHg 14%
    05:00 +18°C° 0 mm 4 mps 718 mmHg 13%
    06:00 +18°C° 0 mm 4 mps 718 mmHg 13%
    07:00 +22°C° 0 mm 4 mps 719 mmHg 11%
    08:00 +26°C° 0 mm 4 mps 719 mmHg 10%
    09:00 +30°C° 0 mm 4 mps 719 mmHg 8%
    10:00 +33°C° 0 mm 3 mps 719 mmHg 8%
    11:00 +34°C° 0 mm 2 mps 719 mmHg 7%
    12:00 +35°C° 0 mm 1 mps 719 mmHg 7%
    13:00 +37°C° 0 mm 2 mps 718 mmHg 6%
    14:00 +38°C° 0 mm 2 mps 718 mmHg 6%
    15:00 +38°C° 0 mm 3 mps 717 mmHg 4%
    16:00 +37°C° 0 mm 3 mps 717 mmHg 5%
    17:00 +36°C° 0 mm 3 mps 717 mmHg 5%
    18:00 +36°C° 0 mm 3 mps 718 mmHg 5%
    19:00 +33°C° 0 mm 3 mps 718 mmHg 6%
    20:00 +29°C° 0 mm 4 mps 718 mmHg 6%
    21:00 +27°C° 0 mm 5 mps 718 mmHg 7%
    22:00 +26°C° 0 mm 5 mps 719 mmHg 8%
    23:00 +25°C° 0 mm 5 mps 719 mmHg 9%

    Tomorrow, 16 November, Saturday

    Time Temperature Precipitation Wind Pressure Humidity
    00:00 +23°C° 0 mm 6 mps 719 mmHg 10%
    01:00 +22°C° 0 mm 6 mps 719 mmHg 11%
    02:00 +21°C° 0 mm 5 mps 719 mmHg 13%
    03:00 +20°C° 0 mm 5 mps 719 mmHg 14%
    04:00 +20°C° 0 mm 5 mps 719 mmHg 18%
    05:00 +19°C° 0 mm 6 mps 720 mmHg 21%
    06:00 +19°C° 0 mm 6 mps 720 mmHg 24%
    07:00 +23°C° 0 mm 7 mps 721 mmHg 20%
    08:00 +27°C° 0 mm 7 mps 721 mmHg 16%
    09:00 +32°C° 0 mm 8 mps 721 mmHg 11%
    10:00 +34°C° 0 mm 7 mps 721 mmHg 10%
    11:00 +35°C° 0 mm 6 mps 721 mmHg 9%
    12:00 +36°C° 0 mm 4 mps 720 mmHg 8%
    13:00 +37°C° 0 mm 5 mps 720 mmHg 7%
    14:00 +39°C° 0 mm 5 mps 719 mmHg 6%
    15:00 +40°C° 0 mm 5 mps 719 mmHg 6%
    16:00 +39°C° 0 mm 5 mps 719 mmHg 6%
    17:00 +37°C° 0 mm 5 mps 719 mmHg 6%
    18:00 +37°C° 0 mm 5 mps 719 mmHg 7%
    19:00 +34°C° 0 mm 6 mps 720 mmHg 8%
    20:00 +32°C° 0 mm 7 mps 720 mmHg 10%
    21:00 +28°C° 0 mm 7 mps 721 mmHg 12%
    22:00 +27°C° 0 mm 7 mps 721 mmHg 13%
    23:00 +26°C° 0 mm 7 mps 721 mmHg 14%

    Day after tomorrow, 17 November, Sunday

    Time Temperature Precipitation Wind Pressure Humidity
    00:00 +26°C° 0 mm 7 mps 721 mmHg 15%
    01:00 +23°C° 0 mm 6 mps 721 mmHg 16%
    02:00 +22°C° 0 mm 5 mps 720 mmHg 17%
    03:00 +21°C° 0 mm 5 mps 720 mmHg 18%
    04:00 +21°C° 0 mm 4 mps 720 mmHg 18%
    05:00 +20°C° 0 mm 4 mps 720 mmHg 19%
    06:00 +20°C° 0 mm 4 mps 721 mmHg 20%
    07:00 +23°C° 0 mm 4 mps 721 mmHg 17%
    08:00 +28°C° 0 mm 5 mps 721 mmHg 15%
    09:00 +32°C° 0 mm 6 mps 722 mmHg 13%
    10:00 +34°C° 0 mm 6 mps 722 mmHg 11%
    11:00 +36°C° 0 mm 6 mps 721 mmHg 10%
    12:00 +38°C° 0 mm 7 mps 721 mmHg 9%
    13:00 +39°C° 0 mm 7 mps 720 mmHg 8%
    14:00 +40°C° 0 mm 6 mps 719 mmHg 7%
    15:00 +41°C° 0 mm 6 mps 719 mmHg 6%
    16:00 +40°C° 0 mm 6 mps 719 mmHg 6%
    17:00 +39°C° 0 mm 6 mps 719 mmHg 7%
    18:00 +37°C° 0 mm 5 mps 719 mmHg 7%
    19:00 +34°C° 0 mm 5 mps 719 mmHg 8%
    20:00 +30°C° 0 mm 5 mps 719 mmHg 9%
    21:00 +28°C° 0 mm 6 mps 719 mmHg 10%
    22:00 +27°C° 0 mm 5 mps 719 mmHg 12%
    23:00 +26°C° 0 mm 5 mps 719 mmHg 14%

    18 November, Monday

    Time Temperature Precipitation Wind Pressure Humidity
    00:00 +25°C° 0 mm 5 mps 719 mmHg 15%
    01:00 +23°C° 0 mm 5 mps 719 mmHg 17%
    02:00 +22°C° 0 mm 4 mps 718 mmHg 19%
    03:00 +21°C° 0 mm 4 mps 718 mmHg 21%
    04:00 +21°C° 0 mm 4 mps 718 mmHg 23%
    05:00 +21°C° 0 mm 4 mps 718 mmHg 24%
    06:00 +20°C° 0 mm 4 mps 719 mmHg 25%
    07:00 +25°C° 0 mm 5 mps 719 mmHg 21%
    08:00 +29°C° 0 mm 6 mps 719 mmHg 18%
    09:00 +33°C° 0 mm 7 mps 720 mmHg 14%
    10:00 +35°C° 0 mm 6 mps 720 mmHg 12%
    11:00 +37°C° 0 mm 5 mps 719 mmHg 10%
    12:00 +38°C° 0 mm 4 mps 719 mmHg 8%
    13:00 +40°C° 0 mm 4 mps 718 mmHg 8%
    14:00 +41°C° 0 mm 4 mps 717 mmHg 7%
    15:00 +41°C° 0 mm 4 mps 716 mmHg 7%
    16:00 +41°C° 0 mm 4 mps 716 mmHg 7%
    17:00 +40°C° 0 mm 4 mps 716 mmHg 7%
    18:00 +38°C° 0 mm 4 mps 716 mmHg 8%
    19:00 +36°C° 0 mm 4 mps 716 mmHg 9%
    20:00 +33°C° 0 mm 4 mps 717 mmHg 11%
    21:00 +29°C° 0 mm 4 mps 717 mmHg 12%
    22:00 +28°C° 0 mm 4 mps 717 mmHg 13%
    23:00 +27°C° 0 mm 4 mps 717 mmHg 14%

    19 November, Tuesday

    Time Temperature Precipitation Wind Pressure Humidity
    00:00 +26°C° 0 mm 4 mps 716 mmHg 15%
    01:00 +25°C° 0 mm 4 mps 716 mmHg 16%
    02:00 +23°C° 0 mm 4 mps 716 mmHg 18%
    03:00 +22°C° 0 mm 3 mps 715 mmHg 19%
    04:00 +22°C° 0 mm 3 mps 716 mmHg 19%
    05:00 +21°C° 0 mm 3 mps 716 mmHg 19%
    06:00 +21°C° 0 mm 3 mps 716 mmHg 20%
    07:00 +26°C° 0 mm 4 mps 717 mmHg 16%
    08:00 +30°C° 0 mm 5 mps 717 mmHg 13%
    09:00 +35°C° 0 mm 6 mps 717 mmHg 9%
    10:00 +38°C° 0 mm 6 mps 717 mmHg 9%
    11:00 +40°C° 0 mm 5 mps 716 mmHg 8%
    12:00 +41°C° 0 mm 5 mps 716 mmHg 7%
    13:00 +42°C° 0 mm 4 mps 715 mmHg 6%
    14:00 +42°C° 0 mm 4 mps 714 mmHg 6%
    15:00 +43°C° 0 mm 3 mps 714 mmHg 6%
    16:00 +42°C° 0 mm 3 mps 713 mmHg 6%
    17:00 +40°C° 0 mm 3 mps 713 mmHg 6%
    18:00 +40°C° 0 mm 3 mps 713 mmHg 7%
    19:00 +37°C° 0 mm 4 mps 713 mmHg 8%
    20:00 +34°C° 0 mm 4 mps 713 mmHg 9%
    21:00 +32°C° 0 mm 5 mps 714 mmHg 11%
    22:00 +30°C° 0 mm 5 mps 713 mmHg 11%
    23:00 +29°C° 0 mm 5 mps 713 mmHg 12%

    20 November, Wednesday

    Time Temperature Precipitation Wind Pressure Humidity
    00:00 +28°C° 0 mm 5 mps 713 mmHg 13%
    01:00 +27°C° 0 mm 5 mps 713 mmHg 13%
    02:00 +27°C° 0 mm 5 mps 713 mmHg 14%
    03:00 +26°C° 0 mm 5 mps 713 mmHg 14%
    04:00 +26°C° 0 mm 5 mps 713 mmHg 14%
    05:00 +25°C° 0 mm 4 mps 713 mmHg 15%
    06:00 +25°C° 0 mm 4 mps 713 mmHg 15%
    07:00 +30°C° 0 mm 5 mps 713 mmHg 12%
    08:00 +35°C° 0 mm 6 mps 714 mmHg 10%
    09:00 +40°C° 0 mm 7 mps 714 mmHg 7%
    10:00 +43°C° 0 mm 7 mps 714 mmHg 6%
    11:00 +45°C° 0 mm 7 mps 714 mmHg 5%
    12:00 +46°C° 0 mm 8 mps 713 mmHg 5%
    13:00 +46°C° 0 mm 7 mps 713 mmHg 5%
    14:00 +47°C° 0 mm 7 mps 712 mmHg 5%
    15:00 +47°C° 0 mm 7 mps 712 mmHg 4%
    16:00 +46°C° 0 mm 6 mps 711 mmHg 5%
    17:00 +45°C° 0 mm 5 mps 711 mmHg 6%
    18:00 +43°C° 0 mm 5 mps 711 mmHg 6%
    19:00 +40°C° 0 mm 4 mps 712 mmHg 8%
    20:00 +36°C° 0 mm 4 mps 712 mmHg 9%
    21:00 +33°C° 0 mm 3 mps 712 mmHg 10%
    22:00 +33°C° 0 mm 4 mps 712 mmHg 12%
    23:00 +32°C° 0 mm 4 mps 712 mmHg 13%
    Show more